Weather History for Juliana Airport, Saint Maarten, Saint Maartin

Change the Weather History Date:

Thursday, November 24, 2011

  Actual Average Record
Temperature  
Mean Temperature 82 °F -  
Max Temperature 85 °F 82 °F - ()
Min Temperature 79 °F 73 °F - ()
Cooling Degree Days 17    
Growing Degree Days 32 (Base 50)    
Moisture  
Dew Point 73 °F    
Average Humidity 75    
Maximum Humidity 83    
Minimum Humidity 65    
Precipitation  
Precipitation 0.00 in 0.12 in - ()
Sea Level Pressure  
Sea Level Pressure 29.97 in    
Wind  
Wind Speed 6 mph ()    
Max Wind Speed 12 mph    
Max Gust Speed -    
Visibility 7.5 miles    
Events Rain    
T = Trace of Precipitation, MM = Missing Value Source: Averaged Metar Reports

Daily Weather History Graph

Daily Weather History Graph

Search for Another Location

Airport:

Trip Planner

Search our weather history database for the weather conditions in past years. The results will help you decide how hot, cold, wet, or windy it might be!

Date:

Astronomy

Nov. 24, 2011 Rise Set
Actual Time 6:23 AM AST 5:34 PM AST
Civil Twilight 6:00 AM AST 5:57 PM AST
Nautical Twilight 5:33 AM AST 6:24 PM AST
Astronomical Twilight 5:06 AM AST 6:51 PM AST
Moon 5:34 AM AST (11/24) 5:05 PM AST (11/24)
Length of Visible Light 11h 57m
Length of Day
11h 11m
Waning Crescent, 1% of the Moon is Illuminated
Nov 24
Waning Crescent
Nov 25
New
Dec 2
First Quarter
Dec 10
Full
Dec 17
Last Quarter

Hourly Weather History & Observations

Time (AST) Temp. Heat Index Dew Point Humidity Pressure Visibility Wind Dir Wind Speed Gust Speed Precip Events Conditions
12:00 AM 80.6 °F 85.4 °F 73.4 °F 79% 29.98 in 6.2 mi ESE 6.9 mph - N/A   Partly Cloudy
2:00 AM 81 °F - 73 °F 71% 29.97 in 19 mi East 6.9 mph - -   Partly Cloudy
2:00 AM 80.6 °F 85.4 °F 73.4 °F 79% 29.95 in 6.2 mi East 6.9 mph - N/A   Scattered Clouds
3:00 AM 80.6 °F 85.4 °F 73.4 °F 79% 29.95 in 6.2 mi East 5.8 mph - N/A Rain Light Rain Showers
4:00 AM 80.6 °F 85.4 °F 73.4 °F 79% 29.95 in 6.2 mi ESE 6.9 mph - N/A   Scattered Clouds
5:00 AM 79 °F - 72 °F 75% 29.95 in 31 mi East 4.6 mph - -   Partly Cloudy
5:00 AM 78.8 °F - 73.4 °F 83% 29.95 in 6.2 mi East 4.6 mph - N/A   Scattered Clouds
6:00 AM 78.8 °F - 73.4 °F 83% 29.95 in 6.2 mi East 5.8 mph - N/A   Scattered Clouds
7:00 AM 80.6 °F 85.4 °F 73.4 °F 79% 29.98 in 6.2 mi ENE 4.6 mph - N/A   Scattered Clouds
8:00 AM 83 °F - 73 °F 65% 30.01 in 19 mi East 6.9 mph - -   Partly Cloudy
8:00 AM 84.2 °F 90.9 °F 73.4 °F 70% 30.01 in 6.2 mi East 6.9 mph - N/A   Scattered Clouds
10:00 AM 84.2 °F 90.9 °F 73.4 °F 70% 30.01 in 6.2 mi ESE 11.5 mph - N/A   Scattered Clouds
11:00 AM 84.2 °F 90.9 °F 73.4 °F 70% 30.01 in 6.2 mi ESE 10.4 mph - N/A   Partly Cloudy
12:00 PM 82.4 °F 88.2 °F 73.4 °F 74% 29.98 in 6.2 mi SE 11.5 mph - N/A   Scattered Clouds
1:00 PM 82.4 °F 88.2 °F 73.4 °F 74% 29.95 in 6.2 mi SE 10.4 mph - N/A   Scattered Clouds
5:00 PM 82 °F - 74 °F 69% 29.94 in 37 mi East 6.9 mph - -   Scattered Clouds
6:00 PM 80.6 °F 85.4 °F 73.4 °F 79% 29.95 in 6.2 mi East 5.8 mph - N/A   Partly Cloudy
7:00 PM 80.6 °F 85.4 °F 73.4 °F 79% 29.95 in 6.2 mi East 4.6 mph - N/A   Partly Cloudy
8:00 PM 81 °F - 74 °F 72% 29.99 in 31 mi East 5.8 mph - -   Partly Cloudy
8:00 PM 80.6 °F 85.4 °F 73.4 °F 79% 29.98 in 6.2 mi East 5.8 mph - N/A   Scattered Clouds
9:00 PM 80.6 °F 84.6 °F 71.6 °F 74% 29.98 in 6.2 mi East 5.8 mph - N/A   Partly Cloudy
10:00 PM 80.6 °F 85.4 °F 73.4 °F 79% 29.98 in 6.2 mi East 5.8 mph - N/A   Partly Cloudy
11:00 PM 81 °F - 72 °F 69% 30.00 in 25 mi ESE 5.8 mph - -   Scattered Clouds
11:00 PM 80.6 °F 85.4 °F 73.4 °F 79% 29.98 in 6.2 mi ESE 5.8 mph - N/A   Partly Cloudy